Location: Woodhurst
(52.3667°N, 0.0667°W)
Time: 15:18:24
(UTC+00:00)

Helios 1B - Pass Details

Date: 19 May 2025
Orbit: 608 x 610 km, 98.2° (Epoch: 18 June)

Event Time Altitude Azimuth Distance (km) Brightness Sun altitude
Rises 22:31:26 0° 15° (NNE) 2,887 8.9 -15.3°
Reaches altitude 10° 22:33:38 10° 17° (NNE) 1,978 7.9 -15.4°
Maximum altitude 22:37:56 78° 104° (ESE) 631 4.5 -15.6°
Enters shadow 22:40:21 25° 188° (S) 1,226 5.6 -15.8°
